Location: Newark
(60.6561°N, 46.5772°E)
Time: 08:15:58
(UTC+00:00)

Envisat - Visible Passes

Search period start: 19 September 2019 00:00
Search period end: 29 September 2019 00:00
Orbit: 764 x 766 km, 98.1° (Epoch: 19 September)

Date Brightness Start Highest point End Pass type
(mag) Time Alt. Az. Time Alt. Az. Time Alt. Az.
19 Sep 6.1 16:48:26 10° WSW 16:51:01 14° W 16:53:37 10° NW visible
20 Sep 5.7 16:09:37 10° SW 16:13:40 23° W 16:17:45 10° NW visible
22 Sep 6.0 16:36:26 10° WSW 16:39:34 16° W 16:42:43 10° NW visible
23 Sep 5.4 15:57:58 10° SSW 16:02:17 27° W 16:06:37 10° NNW visible
24 Sep 6.4 17:04:16 10° W 17:05:34 11° WNW 17:06:52 10° WNW visible
25 Sep 5.9 16:24:33 10° SW 16:28:08 19° W 16:31:44 10° NW visible
26 Sep 5.1 15:46:23 10° SSW 15:50:54 32° W 15:55:27 10° NNW visible
27 Sep 6.7 02:06:54 10° ENE 02:08:35 11° ENE 02:10:17 10° E visible
27 Sep 6.2 16:51:47 10° WSW 16:54:05 13° WNW 16:56:25 10° NW visible
28 Sep 5.7 16:12:47 10° SW 16:16:43 22° W 16:20:40 10° NW visible
